Regional Weather Roundup
Issued by NWS

Home | Current Version | Previous Version | Text Only | Print | Product List | Glossary Off
Versions: 1 2 3 4 5 6 7 8 9 10 11 12 13 14 15 16 17 18 19 20 21 22 23 24 25 26 27 28 29 30 31 32 33 34 35 36 37 38 39 40 41 42 43 44 45 46 47 48 49 50

000
ASUS45 KBOU 210910
RWRCO

WEATHER ROUNDUP FOR COLORADO
NATIONAL WEATHER SERVICE DENVER/BOULDER CO
200 AM MST WED FEB 21 2018

NOTE: "FAIR" INDICATES FEW OR NO CLOUDS BELOW 12000 FEET WITH NO
SIGNIFICANT WEATHER AND/OR OBSTRUCTIONS TO VISIBILITY.

COZ001>005-013-030-031-211000-
...NORTHWEST COLORADO...

CITY           SKY/WX    TMP DP  RH WIND       PRES   REMARKS
CRAIG          FAIR     -12 -17  78 CALM      30.13S
HAYDEN         FAIR      -1  -6  79 E12       30.11S WCI -18
MEEKER         FAIR      -3  -9  75 CALM      30.11S
RANGELY        PTSUNNY    4  -2  77 SE9       30.16F WCI -11
RABBIT EARS PA FAIR      -4  -8  84 SW12      29.89S WCI -22
STEAMBOAT SPGS FAIR      -5  -8  87 CALM      30.09F
WALDEN         FAIR      -6 -11  77 S5        30.02F WCI -17
$$

COZ006>008-011-211000-
...WEST CENTRAL VALLEYS...

CITY           SKY/WX    TMP DP  RH WIND       PRES   REMARKS
GRAND JUNCTION   N/A    N/A N/A N/A MISG      30.14S
MONTROSE       FAIR       7   3  84 S5        30.15F WCI  -2
EAGLE          FAIR       7   2  80 E5        30.14S WCI  -2
RIFLE          FAIR       6   0  76 S3        30.16R
DELTA          FAIR      16  11  81 NE3       30.17S
NUCLA          FAIR      12   5  73 SE6       30.15R WCI   3
$$

COZ017>023-064>068-211000-
...SOUTHWEST COLORADO...

CITY           SKY/WX    TMP DP  RH WIND       PRES   REMARKS
DURANGO        FAIR      10   5  80 CALM      30.10F
CORTEZ         FAIR       8   6  92 E3        30.11S
PAGOSA SPRINGS FAIR       2   0  89 CALM      30.09S
TELLURIDE      FAIR       6  -7  54 SE8       30.01F WCI  -7
WOLF CREEK PAS   N/A     -4  -6  92 S12G17    29.97S WCI -22
$$

COZ009-010-012-014-032>034-037-058>063-211000-
...CENTRAL COLORADO...

CITY           SKY/WX    TMP DP  RH WIND       PRES   REMARKS
ASPEN          FAIR      -2  -6  83 S5        30.04S WCI -12
BUENA VISTA    FAIR       1  -4  78 NW3       30.07S
COPPER MTN     FAIR       0 -11  60 S10       29.86F WCI -17
BERTHOUD PASS  FAIR      -9 -18  64 W7G21     29.82S WCI -24
COTTONWOOD PAS FAIR      12  -2  52 W5        29.98S WCI   4
GUNNISON       FAIR       3  -3  76 N7        30.10F WCI  -9
GRANBY         PTSUNNY   -1  -4  85 NE3       30.06S
KREMMLING      CLOUDY     3  -2  78 CALM      30.10S
LEADVILLE      FAIR     -10 -16  74 CALM      29.95S
MONARCH PASS     N/A     -4  -8  84 SW24      29.98F WCI -29
SALIDA         FAIR      10   6  83 SE5       30.17S WCI   1
SUNLIGHT       FAIR      -4  -8  84 SW12G20   29.96S WCI -22
WILKERSON PASS FAIR       0  -6  78 SW16G24   29.90F WCI -21
$$

COZ069>075-211000-
...SAN LUIS VALLEY/SANGRE DE CRISTO MOUNTAINS...

CITY           SKY/WX    TMP DP  RH WIND       PRES   REMARKS
ALAMOSA        FAIR       5   0  79 S3        30.10S
DEL NORTE      FAIR       2  -6  69 W7        30.10S WCI -10
LA VETA PASS   FAIR       9   3  78 S16G29    30.07F WCI  -9
SAGUACHE       FAIR       3  -4  72 N12       30.10F WCI -13
$$

COZ035-036-038>040-211000-
...NORTHERN COLORADO FRONT RANGE...

CITY           SKY/WX    TMP DP  RH WIND       PRES   REMARKS
DENVER INTL AP FAIR       2  -2  83 SW5       30.16S WCI  -8
AURORA         PTCLDY     3   0  88 CALM      30.15F
FRONT RANGE AP FAIR       6   2  85 SW6       30.16S WCI  -5
ERIE MUNI ARPT FAIR      -6 -11  81 CALM      30.25S
BOULDER MUN AP FAIR       3   1  92 CALM      30.17S
CENTENNIAL     FAIR       3   2  95 CALM      30.13F
BROOMFIELD     FAIR       5   1  85 W3        30.14F
FORT COLLINS   FAIR       0  -3  87 N6        30.21S WCI -12
LONGMONT       FAIR      -3  -9  77 CALM      30.23R
$$

COZ041-046-047-076>085-087-088-211000-
...PIKES PEAK/PALMER DIVIDE AND SOUTHERN FOOTHILLS...

CITY           SKY/WX    TMP DP  RH WIND       PRES   REMARKS
COLO. SPRINGS  LGT SNOW   9   5  84 SE7       30.17S FOG     WCI  -2
A. F. ACADEMY  CLOUDY     9   5  84 SE14      30.13S BLWGSNOWWCI  -7
SCHRIEVER AFB  NOT AVBL
CHEYENNE MTN   LGT SNOW   6   4  91 SE7       30.06F WCI  -6
ELLICOTT         N/A    N/A N/A N/A CALM        N/A
FALCON         LGT SNOW   7   5  90 MISG      30.14S
FORT CARSON    FLURRIES  10   5  79 S6        30.18S WCI   1
LIMON          FAIR       0  -4  83 CALM      30.21S
MONUMENT HILL  FAIR       5   1  85 S12       30.09S WCI -11
CANON CITY     FLURRIES  16  10  79 E6        30.20F WCI   7
WALSENBURG     NOT AVBL
TRINIDAD       FAIR       9   5  84 CALM      30.18F
$$

COZ042>045-048>051-090-091-211000-
...NORTHEAST COLORADO...

CITY           SKY/WX    TMP DP  RH WIND       PRES   REMARKS
GREELEY ARPT   FAIR     -11 -17  75 NW6       30.24F WCI -25
AKRON          FAIR       5   0  79 S7        30.23F WCI  -7
BURLINGTON     FAIR      -6 -10  83 W6        30.29F WCI -19
WRAY           FAIR       5   1  85 W5        30.33F WCI  -4
YUMA           NOT AVBL
STERLING       FAIR      -2  -6  84 CALM      30.28S
HOLYOKE        FAIR       7   1  78 W6        30.32F WCI  -3
FORT MORGAN    FAIR       2  -4  76 N6        30.25S WCI  -9
$$

COZ086-089-092>099-211000-
...SOUTHEAST COLORADO...

CITY           SKY/WX    TMP DP  RH WIND       PRES   REMARKS
PUEBLO         FAIR      10   5  80 N3        30.26F
LA JUNTA       FAIR      10   3  73 CALM      30.29F
LAMAR          FAIR       1  -4  79 SW3       30.32F
SPRINGFIELD      N/A      6   0  76 N6        30.25F WCI  -4
$$



USA.gov is the U.S. government's official web portal to all federal, state and local government web resources and services.